Saint Augustine, FL

11:49 PM EST on February 21, 2017 (GMT -0500)
Saint Augustine

Weather History for KSGJ - January, 1999

Change the Weather History Date:

Tuesday, January 5, 1999

  Actual Average Record
Temperature  
Mean Temperature 36 °F -  
Max Temperature 41 °F 62 °F 81 °F (1993)
Min Temperature 30 °F 44 °F 26 °F (2001)
Degree Days  
Heating Degree Days 30    
Moisture  
Dew Point 14 °F    
Average Humidity 46    
Maximum Humidity 64    
Minimum Humidity 29    
Precipitation  
Precipitation 0.00 in - - ()
Sea Level Pressure  
Sea Level Pressure 30.41 in    
Wind  
Wind Speed 8 mph (NW)    
Max Wind Speed 14 mph    
Max Gust Speed 20 mph    
Visibility 10 miles    
Events      
Averages and records for this station are not official NWS values.
T = Trace of Precipitation, MM = Missing Value Source: NWS Daily Summary

Daily Weather History Graph

Daily Weather History Graph

Search for Another Location

Airport or City:

Trip Planner

Search our weather history database for the weather conditions in past years. The results will help you decide how hot, cold, wet, or windy it might be!

Date:

Astronomy

Jan. 05, 1999 Rise Set
Actual Time 7:21 AM EST 5:39 PM EST
Civil Twilight 6:55 AM EST 6:05 PM EST
Nautical Twilight 6:26 AM EST 6:35 PM EST
Astronomical Twilight 5:56 AM EST 7:04 PM EST
Moon 9:31 PM EST (1/5) 10:01 AM EST (1/5)
Length of Visible Light 11h 10m
Length of Day
10h 17m
Waning Gibbous, 85% of the Moon is Illuminated
Jan 5
Waning Gibbous
Jan 9
Last Quarter
Jan 17
New
Jan 24
First Quarter
Jan 31
Full

Hourly Weather History & Observations

Time (EST) Temp. Windchill Dew Point Humidity Pressure Visibility Wind Dir Wind Speed Gust Speed Precip Events Conditions
12:15 AM 32.0 °F 27.5 °F 19.4 °F 60% 30.38 in 10.0 mi WNW 4.6 mph - N/A   Clear
12:35 AM 32.0 °F 24.8 °F 19.4 °F 60% 30.36 in 10.0 mi NW 8.1 mph - N/A   Clear
12:55 AM 30.2 °F 22.6 °F 19.4 °F 64% 30.36 in 10.0 mi NNW 8.1 mph - N/A   Clear
1:15 AM 30.2 °F 24.3 °F 19.4 °F 64% 30.36 in 10.0 mi WNW 5.8 mph - N/A   Clear
1:35 AM 30.2 °F 25.4 °F 19.4 °F 64% 30.38 in 10.0 mi WNW 4.6 mph - N/A   Clear
1:55 AM 30.2 °F 24.3 °F 19.4 °F 64% 30.36 in 10.0 mi WNW 5.8 mph - N/A   Clear
2:15 AM 30.2 °F 24.3 °F 17.6 °F 60% 30.37 in 10.0 mi WNW 5.8 mph - N/A   Clear
2:35 AM 30.2 °F 25.4 °F 17.6 °F 60% 30.37 in 10.0 mi WNW 4.6 mph - N/A   Clear
2:55 AM 30.2 °F 22.6 °F 17.6 °F 60% 30.37 in 10.0 mi NW 8.1 mph - N/A   Clear
3:15 AM 30.2 °F 21.3 °F 17.6 °F 60% 30.37 in 10.0 mi NW 10.4 mph - N/A   Clear
3:35 AM 30.2 °F 22.6 °F 17.6 °F 60% 30.37 in 10.0 mi NW 8.1 mph - N/A   Clear
3:55 AM 30.2 °F 22.6 °F 17.6 °F 60% 30.37 in 10.0 mi NW 8.1 mph - N/A   Clear
4:15 AM 30.2 °F 22.6 °F 15.8 °F 55% 30.38 in 10.0 mi NW 8.1 mph - N/A   Clear
4:35 AM 30.2 °F 21.9 °F 15.8 °F 55% 30.38 in 10.0 mi NNW 9.2 mph - N/A   Clear
4:55 AM 32.0 °F 24.8 °F 15.8 °F 51% 30.39 in 10.0 mi NW 8.1 mph - N/A   Clear
5:15 AM 32.0 °F 23.0 °F 15.8 °F 51% 30.39 in 10.0 mi NW 11.5 mph 17.3 mph N/A   Clear
5:35 AM 30.2 °F 21.9 °F 15.8 °F 55% 30.39 in 10.0 mi NNW 9.2 mph - N/A   Clear
5:55 AM 30.2 °F 21.9 °F 15.8 °F 55% 30.41 in 10.0 mi NW 9.2 mph - N/A   Clear
6:15 AM 30.2 °F 21.3 °F 15.8 °F 55% 30.41 in 10.0 mi NW 10.4 mph - N/A   Clear
6:35 AM 30.2 °F 21.9 °F 15.8 °F 55% 30.42 in 10.0 mi NW 9.2 mph - N/A   Clear
6:55 AM 30.2 °F 21.9 °F 15.8 °F 55% 30.44 in 10.0 mi NW 9.2 mph - N/A   Clear
7:15 AM 30.2 °F 22.6 °F 15.8 °F 55% 30.44 in 10.0 mi NW 8.1 mph - N/A   Clear
7:55 AM 30.2 °F 21.9 °F 14.0 °F 51% 30.45 in 10.0 mi NW 9.2 mph - N/A   Clear
8:35 AM 30.2 °F 22.6 °F 15.8 °F 55% 30.46 in 10.0 mi NNW 8.1 mph - N/A   Clear
8:55 AM 30.2 °F 20.8 °F 15.8 °F 55% 30.46 in 10.0 mi NNW 11.5 mph - N/A   Clear
9:15 AM 30.2 °F 20.8 °F 14.0 °F 51% 30.48 in 10.0 mi NNW 11.5 mph - N/A   Clear
9:35 AM 32.0 °F 22.5 °F 14.0 °F 48% 30.48 in 10.0 mi NNW 12.7 mph 19.6 mph N/A   Clear
9:55 AM 32.0 °F 22.1 °F 12.2 °F 44% 30.49 in 10.0 mi NNW 13.8 mph - N/A   Clear
10:15 AM 33.8 °F 25.8 °F 14.0 °F 44% 30.48 in 10.0 mi North 10.4 mph 17.3 mph N/A   Clear
10:35 AM 33.8 °F 27.0 °F 14.0 °F 44% 30.49 in 10.0 mi NNW 8.1 mph 16.1 mph N/A   Clear
10:55 AM 35.6 °F 29.2 °F 14.0 °F 41% 30.48 in 10.0 mi NNW 8.1 mph - N/A   Clear
11:15 AM 35.6 °F 28.0 °F 12.2 °F 38% 30.48 in 10.0 mi NW 10.4 mph - N/A   Clear
11:55 AM 37.4 °F 29.8 °F 14.0 °F 38% 30.46 in 10.0 mi NNW 11.5 mph - N/A   Clear
12:15 PM 37.4 °F 30.8 °F 14.0 °F 38% 30.44 in 10.0 mi NW 9.2 mph - N/A   Clear
12:35 PM 37.4 °F 32.1 °F 12.2 °F 36% 30.43 in 10.0 mi NW 6.9 mph - N/A   Clear
12:55 PM 39.2 °F 32.5 °F 10.4 °F 31% 30.42 in 10.0 mi NW 10.4 mph 16.1 mph N/A   Clear
1:15 PM 39.2 °F 33.6 °F 10.4 °F 31% 30.42 in 10.0 mi WNW 8.1 mph 19.6 mph N/A   Clear
1:35 PM 39.2 °F 33.6 °F 12.2 °F 33% 30.41 in 10.0 mi North 8.1 mph - N/A   Clear
1:55 PM 41.0 °F 35.2 °F 10.4 °F 29% 30.40 in 10.0 mi West 9.2 mph - N/A   Clear
2:15 PM 41.0 °F 33.9 °F 10.4 °F 29% 30.39 in 10.0 mi WNW 12.7 mph 19.6 mph N/A   Clear
2:35 PM 41.0 °F 33.5 °F 10.4 °F 29% 30.39 in 10.0 mi NW 13.8 mph - N/A   Clear
2:55 PM 41.0 °F 35.8 °F 10.4 °F 29% 30.40 in 10.0 mi WNW 8.1 mph - N/A   Clear
3:15 PM 41.0 °F 35.8 °F 10.4 °F 29% 30.40 in 10.0 mi WNW 8.1 mph 16.1 mph N/A   Clear
3:35 PM 41.0 °F 35.2 °F 10.4 °F 29% 30.39 in 10.0 mi WNW 9.2 mph - N/A   Clear
3:55 PM 41.0 °F 36.4 °F 10.4 °F 29% 30.40 in 10.0 mi NNW 6.9 mph - N/A   Clear
4:15 PM 39.2 °F 34.2 °F 10.4 °F 31% 30.39 in 10.0 mi NW 6.9 mph - N/A   Clear
4:35 PM 39.2 °F 33.6 °F 10.4 °F 31% 30.40 in 10.0 mi WNW 8.1 mph - N/A   Clear
4:55 PM 39.2 °F 33.0 °F 10.4 °F 31% 30.40 in 10.0 mi NW 9.2 mph - N/A   Clear
5:15 PM 37.4 °F 31.4 °F 12.2 °F 36% 30.41 in 10.0 mi NNW 8.1 mph - N/A   Clear
5:35 PM 35.6 °F 30.7 °F 12.2 °F 38% 30.41 in 10.0 mi NW 5.8 mph - N/A   Clear
5:55 PM 35.6 °F 31.7 °F 14.0 °F 41% 30.42 in 10.0 mi NW 4.6 mph - N/A   Clear
6:15 PM 35.6 °F 31.7 °F 14.0 °F 41% 30.42 in 10.0 mi NW 4.6 mph - N/A   Clear
6:35 PM 33.8 °F 28.6 °F 14.0 °F 44% 30.43 in 10.0 mi NNW 5.8 mph - N/A   Clear
6:55 PM 32.0 °F 26.4 °F 14.0 °F 48% 30.44 in 10.0 mi NNW 5.8 mph - N/A   Clear
7:15 PM 32.0 °F 26.4 °F 14.0 °F 48% 30.44 in 10.0 mi NNW 5.8 mph - N/A   Clear
7:35 PM 30.2 °F 23.4 °F 12.2 °F 47% 30.44 in 10.0 mi NNW 6.9 mph - N/A   Clear
7:55 PM 30.2 °F 24.3 °F 12.2 °F 47% 30.44 in 10.0 mi NNW 5.8 mph - N/A   Clear
8:15 PM 30.2 °F 23.4 °F 12.2 °F 47% 30.44 in 10.0 mi NW 6.9 mph - N/A   Clear
8:35 PM 30.2 °F 23.4 °F 12.2 °F 47% 30.45 in 10.0 mi NW 6.9 mph - N/A   Clear
8:55 PM 28.4 °F 19.7 °F 12.2 °F 51% 30.45 in 10.0 mi NNW 9.2 mph - N/A   Clear
9:15 PM 30.2 °F 22.6 °F 12.2 °F 47% 30.44 in 10.0 mi NNW 8.1 mph - N/A   Clear
9:35 PM 28.4 °F 19.7 °F 14.0 °F 55% 30.45 in 10.0 mi NW 9.2 mph - N/A   Clear
9:55 PM 30.2 °F 22.6 °F 12.2 °F 47% 30.45 in 10.0 mi NW 8.1 mph - N/A   Clear
10:15 PM 30.2 °F 23.4 °F 12.2 °F 47% 30.46 in 10.0 mi NW 6.9 mph - N/A   Clear
10:35 PM 30.2 °F 23.4 °F 12.2 °F 47% 30.46 in 10.0 mi WNW 6.9 mph - N/A   Clear
10:55 PM 30.2 °F 22.6 °F 12.2 °F 47% 30.46 in 10.0 mi WNW 8.1 mph - N/A   Clear
11:15 PM 30.2 °F 23.4 °F 12.2 °F 47% 30.45 in 10.0 mi NW 6.9 mph - N/A   Clear
11:35 PM 28.4 °F 21.2 °F 12.2 °F 51% 30.46 in 10.0 mi WNW 6.9 mph - N/A   Clear
11:55 PM 28.4 °F 20.4 °F 12.2 °F 51% 30.46 in 10.0 mi NW 8.1 mph - N/A   Clear